Hourly Data Report for October 06, 2017

All times are specified in Local Standard Time (LST). Add 1 hour to adjust for Daylight Saving Time where and when it is observed.

RANKIN INLET A
NUNAVUT

62°48'38.000" N
92°06'53.000" W
32.30 m
2303405
71083
YRT

Download Data

Hourly Data (October 2017)
Hourly Data Report for October 6, 2017
Temp Definition
°C
Dew Point Temp Definition
°C
Rel Hum Definition
%
Wind Dir Definition
10's deg

Wind Spd Definition
km/h
Visibility Definition
km
Stn Press Definition
kPa
Hmdx Definition


Wind Chill Definition


Weather Definition


TIME
00:00 Legend Double Dagger -5.7 -7.5 88 33 32 24.1 99.31   -14 Mainly Clear
01:00 Legend Double Dagger -6.0 -7.6 88 33 29 24.1 99.32   -14 LegendNANA
02:00 Legend Double Dagger -5.7 -7.1 90 34 37 24.1 99.32   -15 LegendNANA
03:00 Legend Double Dagger -4.6 -6.1 89 34 27 24.1 99.34   -12 Mainly Clear
04:00 Legend Double Dagger -4.1 -6.6 83 35 36 24.1 99.36   -12 LegendNANA
05:00 Legend Double Dagger -4.1 -6.3 84 34 38 24.1 99.39   -13 LegendNANA
06:00 Legend Double Dagger -3.7 -5.7 86 35 35 24.1 99.40   -12 Mostly Cloudy
07:00 Legend Double Dagger -3.9 -5.5 88 35 30 24.1 99.43   -12 LegendNANA
08:00 Legend Double Dagger -3.5 -5.3 87 35 30 24.1 99.45   -11 LegendNANA
09:00 Legend Double Dagger -2.9 -5.0 86 35 30 24.1 99.48   -10 Cloudy
10:00 Legend Double Dagger -2.4 -4.7 84 36 29 24.1 99.48   -9 LegendNANA
11:00 Legend Double Dagger -2.0 -4.2 85 34 24 24.1 99.54   -8 LegendNANA
12:00 Legend Double Dagger -1.8 -3.8 86 35 26 24.1 99.55   -8 Mostly Cloudy
13:00 Legend Double Dagger -1.1 -3.5 84 35 26 24.1 99.61   -7 LegendNANA
14:00 Legend Double Dagger -1.1 -3.6 83 1 17 24.1 99.63   -6 LegendNANA
15:00 Legend Double Dagger -0.9 -3.5 83 2 15 24.1 99.65   -6 Mostly Cloudy
16:00 Legend Double Dagger -0.8 -3.7 81 4 17 24.1 99.68   -6 LegendNANA
17:00 Legend Double Dagger -1.7 -4.1 84 6 12 24.1 99.74   -6 LegendNANA
18:00 Legend Double Dagger -1.6 -3.8 85 4 10 24.1 99.79   -5 Mostly Cloudy
19:00 Legend Double Dagger -1.6 -4.3 82 8 13 24.1 99.82   -6 LegendNANA
20:00 Legend Double Dagger -1.7 -4.4 82 7 8 24.1 99.82   -5 LegendNANA
21:00 Legend Double Dagger -1.6 -4.3 82 6 10 24.1 99.85   -5 Mostly Cloudy
22:00 Legend Double Dagger -1.5 -4.2 82 7 10 24.1 99.85   -5 LegendNANA
23:00 Legend Double Dagger -2.0 -3.9 86 4 13 24.1 99.84   -6 LegendNANA

Notes on Data Quality.

Legend

  • E = Estimated
  • M = Missing
  • NA = Not Available
  • ‡ = Partner data that is not subject to review by the National Climate Archives
Date modified: